| time (UTC) | temp C | wind direction | speed KPH | gust KPH | rain 1hr cm | rain 24hr cm | rain mn cm | humidity % | barometer mb |
| 20260508195211 | 15 | 178 | 11.3 | 24.1 | 0.00 | 0.00 | 0.00 | 72 | 1008.5 |
| 20260508194711 | 15 | 218 | 8.0 | 19.3 | 0.00 | 0.00 | 0.00 | 72 | 1008.6 |
| 20260508194211 | 16 | 162 | 11.3 | 24.1 | 0.00 | 0.00 | 0.00 | 70 | 1008.6 |
| 20260508193711 | 16 | 177 | 9.7 | 22.5 | 0.00 | 0.00 | 0.00 | 69 | 1008.6 |
| 20260508193211 | 16 | 200 | 9.7 | 14.5 | 0.00 | 0.00 | 0.00 | 68 | 1008.7 |
| 20260508192711 | 16 | 229 | 14.5 | 22.5 | 0.00 | 0.00 | 0.00 | 65 | 1008.8 |
| 20260508192211 | 16 | 186 | 9.7 | 20.9 | 0.00 | 0.00 | 0.00 | 63 | 1008.8 |
| 20260508191711 | 16 | 196 | 16.1 | 27.4 | 0.00 | 0.00 | 0.00 | 63 | 1008.8 |
| 20260508191211 | 16 | 208 | 8.0 | 17.7 | 0.00 | 0.00 | 0.00 | 61 | 1008.9 |
| 20260508190711 | 16 | 214 | 9.7 | 16.1 | 0.00 | 0.00 | 0.00 | 61 | 1009.0 |
| 20260508190211 | 16 | 206 | 9.7 | 17.7 | 0.00 | 0.00 | 0.00 | 58 | 1009.1 |
| 20260508185711 | 16 | 221 | 6.4 | 25.7 | 0.00 | 0.00 | 0.00 | 55 | 1009.1 |
| 20260508185211 | 16 | 195 | 11.3 | 14.5 | 0.00 | 0.00 | 0.00 | 57 | 1009.1 |
| 20260508184711 | 16 | 188 | 9.7 | 20.9 | 0.00 | 0.00 | 0.00 | 54 | 1009.2 |
| 20260508184211 | 16 | 216 | 6.4 | 19.3 | 0.00 | 0.00 | 0.00 | 53 | 1009.2 |
| 20260508183711 | 16 | 203 | 12.9 | 25.7 | 0.00 | 0.00 | 0.00 | 55 | 1009.3 |
| 20260508183211 | 16 | 200 | 9.7 | 25.7 | 0.00 | 0.00 | 0.00 | 53 | 1009.4 |
| 20260508182731 | 16 | 170 | 9.7 | 16.1 | 0.00 | 0.00 | 0.00 | 57 | 1009.5 |
| 20260508182211 | 16 | 224 | 8.0 | 12.9 | 0.00 | 0.00 | 0.00 | 59 | 1009.5 |
| 20260508181711 | 16 | 206 | 4.8 | 17.7 | 0.00 | 0.00 | 0.00 | 59 | 1009.5 |
| 20260508181211 | 16 | 199 | 8.0 | 12.9 | 0.00 | 0.00 | 0.00 | 57 | 1009.5 |
| 20260508180711 | 16 | 194 | 11.3 | 22.5 | 0.00 | 0.00 | 0.00 | 60 | 1009.5 |
| 20260508180211 | 16 | 207 | 16.1 | 17.7 | 0.00 | 0.00 | 0.00 | 61 | 1009.6 |
| 20260508175711 | 16 | 208 | 9.7 | 16.1 | 0.00 | 0.00 | 0.00 | 59 | 1009.7 |
| 20260508175210 | 16 | 174 | 6.4 | 20.9 | 0.00 | 0.00 | 0.00 | 59 | 1009.7 |
| 20260508174711 | 16 | 189 | 11.3 | 24.1 | 0.00 | 0.00 | 0.00 | 63 | 1009.7 |
| 20260508174210 | 16 | 195 | 3.2 | 14.5 | 0.00 | 0.00 | 0.00 | 59 | 1009.7 |
| 20260508173711 | 16 | 222 | 6.4 | 14.5 | 0.00 | 0.00 | 0.00 | 59 | 1009.8 |
| 20260508173210 | 16 | 209 | 4.8 | 8.0 | 0.00 | 0.00 | 0.00 | 61 | 1010.1 |
| 20260508172731 | 16 | 177 | 9.7 | 19.3 | 0.00 | 0.00 | 0.00 | 61 | 1010.1 |
| 20260508172210 | 16 | 183 | 9.7 | 20.9 | 0.00 | 0.00 | 0.00 | 61 | 1010.1 |
| 20260508171731 | 16 | 210 | 8.0 | 12.9 | 0.00 | 0.00 | 0.00 | 62 | 1010.0 |
| 20260508171211 | 16 | 191 | 6.4 | 12.9 | 0.00 | 0.00 | 0.00 | 64 | 1010.1 |
| 20260508170751 | 16 | 203 | 11.3 | 16.1 | 0.00 | 0.00 | 0.00 | 64 | 1010.2 |
| 20260508170210 | 16 | 190 | 8.0 | 16.1 | 0.00 | 0.00 | 0.00 | 62 | 1010.3 |
| 20260508165710 | 16 | 232 | 1.6 | 4.8 | 0.00 | 0.00 | 0.00 | 64 | 1010.4 |
| 20260508165210 | 15 | 217 | 9.7 | 14.5 | 0.00 | 0.00 | 0.00 | 66 | 1010.3 |
| 20260508164711 | 15 | 349 | 1.6 | 4.8 | 0.00 | 0.00 | 0.00 | 65 | 1010.4 |
| 20260508164211 | 15 | 222 | 9.7 | 14.5 | 0.00 | 0.00 | 0.00 | 69 | 1010.6 |
| 20260508163711 | 15 | 198 | 11.3 | 16.1 | 0.00 | 0.00 | 0.00 | 68 | 1010.7 |
| 20260508163210 | 15 | 173 | 8.0 | 14.5 | 0.00 | 0.00 | 0.00 | 71 | 1010.7 |
| 20260508162711 | 15 | 173 | 3.2 | 8.0 | 0.00 | 0.00 | 0.00 | 69 | 1010.9 |
| 20260508162210 | 14 | 196 | 1.6 | 6.4 | 0.00 | 0.00 | 0.00 | 69 | 1011.0 |
| 20260508161710 | 14 | 198 | 4.8 | 11.3 | 0.00 | 0.00 | 0.00 | 69 | 1011.1 |
| 20260508161230 | 14 | 206 | 8.0 | 12.9 | 0.00 | 0.00 | 0.00 | 71 | 1011.1 |
| 20260508160710 | 14 | 192 | 8.0 | 16.1 | 0.00 | 0.00 | 0.00 | 70 | 1011.1 |
| 20260508160211 | 14 | 169 | 9.7 | 19.3 | 0.00 | 0.00 | 0.00 | 72 | 1011.2 |
| 20260508155710 | 13 | 184 | 9.7 | 16.1 | 0.00 | 0.00 | 0.00 | 70 | 1011.2 |
| 20260508155210 | 14 | 190 | 6.4 | 11.3 | 0.00 | 0.00 | 0.00 | 71 | 1011.4 |
| 20260508154711 | 13 | 213 | 4.8 | 12.9 | 0.00 | 0.00 | 0.00 | 71 | 1011.3 |
| 20260508154210 | 14 | 220 | 8.0 | 17.7 | 0.00 | 0.00 | 0.00 | 71 | 1011.3 |
| 20260508153710 | 14 | 181 | 3.2 | 14.5 | 0.00 | 0.00 | 0.00 | 72 | 1011.3 |
| 20260508153210 | 13 | 200 | 3.2 | 6.4 | 0.00 | 0.00 | 0.00 | 72 | 1011.2 |
| 20260508152710 | 13 | 204 | 8.0 | 11.3 | 0.00 | 0.00 | 0.00 | 73 | 1011.2 |
| 20260508152210 | 13 | 189 | 1.6 | 6.4 | 0.00 | 0.00 | 0.00 | 73 | 1011.1 |
| 20260508151730 | 13 | 216 | 3.2 | 6.4 | 0.00 | 0.00 | 0.00 | 74 | 1011.2 |
| 20260508151210 | 13 | 254 | 3.2 | 9.7 | 0.00 | 0.00 | 0.00 | 74 | 1011.2 |
| 20260508150710 | 13 | 207 | 6.4 | 11.3 | 0.00 | 0.00 | 0.00 | 74 | 1011.2 |
| 20260508150210 | 13 | 225 | 3.2 | 6.4 | 0.00 | 0.00 | 0.00 | 74 | 1011.3 |
| 20260508145731 | 12 | 212 | 4.8 | 11.3 | 0.00 | 0.00 | 0.00 | 75 | 1011.3 |
| 20260508145210 | 12 | 228 | 1.6 | 3.2 | 0.00 | 0.00 | 0.00 | 74 | 1011.3 |
| 20260508144710 | 12 | 248 | 1.6 | 6.4 | 0.00 | 0.00 | 0.00 | 73 | 1011.3 |
| 20260508144210 | 13 | 229 | 3.2 | 8.0 | 0.00 | 0.00 | 0.00 | 72 | 1011.4 |
| 20260508143710 | 13 | 208 | 6.4 | 11.3 | 0.00 | 0.00 | 0.00 | 73 | 1011.4 |
| 20260508143210 | 13 | 178 | 8.0 | 14.5 | 0.00 | 0.00 | 0.00 | 78 | 1011.4 |
| 20260508142710 | 12 | 241 | 3.2 | 6.4 | 0.00 | 0.00 | 0.00 | 77 | 1011.4 |
| 20260508142210 | 12 | 236 | 3.2 | 6.4 | 0.00 | 0.00 | 0.00 | 76 | 1011.3 |
| 20260508141711 | 12 | 243 | 3.2 | 8.0 | 0.00 | 0.00 | 0.00 | 76 | 1011.3 |
| 20260508141210 | 12 | 205 | 1.6 | 4.8 | 0.00 | 0.00 | 0.00 | 76 | 1011.3 |
| 20260508140710 | 12 | 218 | 6.4 | 8.0 | 0.00 | 0.00 | 0.00 | 75 | 1011.4 |
| 20260508140210 | 12 | 241 | 1.6 | 3.2 | 0.00 | 0.00 | 0.00 | 74 | 1011.5 |
| 20260508135710 | 12 | 207 | 8.0 | 11.3 | 0.00 | 0.00 | 0.00 | 74 | 1011.4 |
| 20260508135210 | 13 | 198 | 4.8 | 9.7 | 0.00 | 0.00 | 0.00 | 74 | 1011.5 |
| 20260508134710 | 12 | 176 | 1.6 | 3.2 | 0.00 | 0.00 | 0.00 | 76 | 1011.6 |
| 20260508134210 | 12 | 200 | 1.6 | 3.2 | 0.00 | 0.00 | 0.00 | 75 | 1011.7 |
| 20260508133730 | 12 | 224 | 4.8 | 6.4 | 0.00 | 0.00 | 0.00 | 75 | 1011.6 |
| 20260508133212 | 12 | 320 | 3.2 | 8.0 | 0.00 | 0.00 | 0.00 | 76 | 1011.7 |
| 20260508132712 | 12 | 268 | 3.2 | 4.8 | 0.00 | 0.00 | 0.00 | 77 | 1011.8 |
| 20260508132232 | 12 | 240 | 8.0 | 12.9 | 0.00 | 0.00 | 0.00 | 78 | 1011.8 |
| 20260508131712 | 11 | 2 | 1.6 | 4.8 | 0.00 | 0.00 | 0.00 | 79 | 1011.6 |
| 20260508131212 | 11 | 239 | 4.8 | 8.0 | 0.00 | 0.00 | 0.00 | 79 | 1011.7 |
| 20260508130712 | 11 | 330 | 4.8 | 8.0 | 0.00 | 0.00 | 0.00 | 80 | 1011.7 |
| 20260508130212 | 11 | 237 | 8.0 | 12.9 | 0.00 | 0.00 | 0.00 | 82 | 1011.7 |
| 20260508125732 | 11 | 308 | 1.6 | 8.0 | 0.00 | 0.00 | 0.00 | 83 | 1011.8 |
| 20260508125212 | 10 | 216 | 6.4 | 9.7 | 0.00 | 0.00 | 0.00 | 84 | 1011.8 |
| 20260508124732 | 10 | 216 | 8.0 | 9.7 | 0.00 | 0.00 | 0.00 | 85 | 1011.9 |
| 20260508124212 | 10 | 236 | 1.6 | 9.7 | 0.00 | 0.00 | 0.00 | 85 | 1011.9 |
| 20260508123712 | 10 | 214 | 4.8 | 9.7 | 0.00 | 0.00 | 0.00 | 86 | 1012.0 |
| 20260508123212 | 9 | 237 | 6.4 | 12.9 | 0.00 | 0.00 | 0.00 | 87 | 1011.8 |
| 20260508122713 | 9 | 266 | 1.6 | 11.3 | 0.00 | 0.00 | 0.00 | 88 | 1011.7 |
| 20260508122212 | 8 | 236 | 1.6 | 4.8 | 0.00 | 0.00 | 0.00 | 88 | 1011.7 |
| 20260508121712 | 8 | 195 | 1.6 | 6.4 | 0.00 | 0.00 | 0.00 | 89 | 1011.8 |
| 20260508121212 | 8 | 247 | 1.6 | 4.8 | 0.00 | 0.00 | 0.00 | 89 | 1011.7 |
| 20260508120712 | 8 | 232 | 4.8 | 8.0 | 0.00 | 0.00 | 0.00 | 90 | 1011.7 |
| 20260508120232 | 8 | 206 | 4.8 | 8.0 | 0.00 | 0.00 | 0.00 | 90 | 1011.7 |
| 20260508115732 | 8 | 253 | 4.8 | 11.3 | 0.00 | 0.00 | 0.00 | 91 | 1011.6 |
| 20260508115232 | 8 | 218 | 3.2 | 9.7 | 0.00 | 0.00 | 0.00 | 91 | 1011.6 |
| 20260508114712 | 7 | 231 | 1.6 | 3.2 | 0.00 | 0.00 | 0.00 | 91 | 1011.5 |
| 20260508114212 | 7 | 252 | 3.2 | 8.0 | 0.00 | 0.00 | 0.00 | 92 | 1011.5 |
| 20260508113712 | 7 | 220 | 3.2 | 4.8 | 0.00 | 0.00 | 0.00 | 91 | 1011.3 |
| 20260508113232 | 7 | 220 | 0.0 | 3.2 | 0.00 | 0.00 | 0.00 | 91 | 1011.1 |
| 20260508112712 | 7 | 0.0 | 0.0 | 0.00 | 0.00 | 0.00 | 91 | 1011.0 | |
| 20260508112212 | 7 | 0.0 | 1.6 | 0.00 | 0.00 | 0.00 | 91 | 1011.0 | |
| 20260508111712 | 7 | 0.0 | 0.0 | 0.00 | 0.00 | 0.00 | 91 | 1011.1 | |
| 20260508111212 | 7 | 228 | 0.0 | 3.2 | 0.00 | 0.00 | 0.00 | 91 | 1011.0 |
| 20260508110712 | 7 | 0.0 | 0.0 | 0.00 | 0.00 | 0.00 | 91 | 1011.0 | |
| 20260508110252 | 6 | 138 | 1.6 | 3.2 | 0.00 | 0.00 | 0.00 | 91 | 1011.0 |
| 20260508105732 | 6 | 0.0 | 0.0 | 0.00 | 0.00 | 0.00 | 91 | 1010.9 | |
| 20260508105232 | 6 | 202 | 0.0 | 1.6 | 0.00 | 0.00 | 0.00 | 91 | 1010.9 |
| 20260508104712 | 6 | 217 | 0.0 | 1.6 | 0.00 | 0.00 | 0.00 | 90 | 1010.9 |
| 20260508104232 | 6 | 0.0 | 0.0 | 0.00 | 0.00 | 0.00 | 90 | 1010.9 | |
| 20260508103712 | 6 | 0.0 | 0.0 | 0.00 | 0.00 | 0.00 | 90 | 1010.8 | |
| 20260508103212 | 6 | 199 | 0.0 | 1.6 | 0.00 | 0.00 | 0.00 | 90 | 1010.7 |
| 20260508102732 | 6 | 199 | 0.0 | 1.6 | 0.00 | 0.00 | 0.00 | 90 | 1010.8 |
| 20260508102212 | 7 | 0.0 | 0.0 | 0.00 | 0.00 | 0.00 | 90 | 1010.8 | |
| 20260508101712 | 7 | 0.0 | 1.6 | 0.00 | 0.00 | 0.00 | 90 | 1010.7 | |
| 20260508101212 | 7 | 198 | 0.0 | 3.2 | 0.00 | 0.00 | 0.00 | 89 | 1010.8 |
| 20260508100712 | 7 | 192 | 0.0 | 3.2 | 0.00 | 0.00 | 0.00 | 89 | 1010.7 |
| 20260508100212 | 7 | 0.0 | 0.0 | 0.00 | 0.00 | 0.00 | 89 | 1010.8 | |
| 20260508095712 | 7 | 203 | 0.0 | 3.2 | 0.00 | 0.00 | 0.00 | 89 | 1010.8 |
| 20260508095212 | 7 | 0.0 | 0.0 | 0.00 | 0.00 | 0.00 | 89 | 1010.8 | |
| 20260508094712 | 7 | 211 | 0.0 | 3.2 | 0.00 | 0.00 | 0.00 | 89 | 1010.8 |
| 20260508094212 | 7 | 199 | 1.6 | 4.8 | 0.00 | 0.00 | 0.00 | 89 | 1010.8 |
| 20260508093712 | 7 | 207 | 1.6 | 4.8 | 0.00 | 0.00 | 0.00 | 89 | 1010.8 |
| 20260508093212 | 7 | 211 | 0.0 | 1.6 | 0.00 | 0.00 | 0.00 | 89 | 1010.8 |
| 20260508092712 | 7 | 220 | 1.6 | 3.2 | 0.00 | 0.00 | 0.00 | 89 | 1010.9 |
| 20260508092212 | 7 | 225 | 0.0 | 3.2 | 0.00 | 0.00 | 0.00 | 89 | 1011.0 |
| 20260508091712 | 7 | 195 | 1.6 | 4.8 | 0.00 | 0.00 | 0.00 | 89 | 1010.9 |
| 20260508091212 | 7 | 190 | 3.2 | 4.8 | 0.00 | 0.00 | 0.00 | 89 | 1010.8 |
| 20260508090732 | 7 | 174 | 3.2 | 6.4 | 0.00 | 0.00 | 0.00 | 88 | 1010.9 |
| 20260508090212 | 7 | 184 | 1.6 | 4.8 | 0.00 | 0.00 | 0.00 | 88 | 1011.0 |
| 20260508085712 | 7 | 187 | 1.6 | 4.8 | 0.00 | 0.00 | 0.00 | 88 | 1010.9 |
| 20260508085252 | 7 | 183 | 1.6 | 8.0 | 0.00 | 0.00 | 0.00 | 88 | 1011.0 |
| 20260508084712 | 7 | 202 | 1.6 | 4.8 | 0.00 | 0.00 | 0.00 | 88 | 1011.0 |
| 20260508084212 | 7 | 220 | 0.0 | 3.2 | 0.00 | 0.00 | 0.00 | 88 | 1011.0 |
| 20260508083712 | 7 | 187 | 0.0 | 4.8 | 0.00 | 0.00 | 0.00 | 88 | 1011.1 |
| 20260508083211 | 7 | 192 | 1.6 | 4.8 | 0.00 | 0.00 | 0.00 | 88 | 1011.1 |
| 20260508082712 | 7 | 190 | 3.2 | 4.8 | 0.00 | 0.00 | 0.00 | 87 | 1011.1 |
| 20260508082212 | 7 | 175 | 1.6 | 4.8 | 0.00 | 0.00 | 0.00 | 87 | 1011.1 |
| 20260508081711 | 7 | 198 | 1.6 | 4.8 | 0.00 | 0.00 | 0.00 | 87 | 1011.1 |
| 20260508081211 | 7 | 163 | 0.0 | 4.8 | 0.00 | 0.00 | 0.00 | 87 | 1011.1 |
| 20260508080712 | 7 | 172 | 0.0 | 1.6 | 0.00 | 0.00 | 0.00 | 87 | 1011.2 |
| 20260508080212 | 7 | 174 | 0.0 | 8.0 | 0.00 | 0.00 | 0.00 | 87 | 1011.2 |
| 20260508075712 | 7 | 189 | 4.8 | 9.7 | 0.00 | 0.00 | 0.00 | 87 | 1011.2 |
| 20260508075212 | 7 | 188 | 1.6 | 3.2 | 0.00 | 0.00 | 0.00 | 86 | 1011.1 |
| 20260508074712 | 7 | 169 | 0.0 | 6.4 | 0.00 | 0.00 | 0.00 | 87 | 1011.2 |
| 20260508074212 | 7 | 205 | 6.4 | 9.7 | 0.00 | 0.00 | 0.00 | 86 | 1011.2 |
| 20260508073711 | 7 | 202 | 3.2 | 4.8 | 0.00 | 0.00 | 0.00 | 86 | 1011.2 |
| 20260508073211 | 7 | 203 | 3.2 | 8.0 | 0.00 | 0.00 | 0.00 | 86 | 1011.2 |
| 20260508072711 | 7 | 178 | 1.6 | 4.8 | 0.00 | 0.00 | 0.00 | 86 | 1011.2 |
| 20260508072212 | 7 | 193 | 0.0 | 3.2 | 0.00 | 0.00 | 0.00 | 86 | 1011.1 |
| 20260508071712 | 7 | 177 | 0.0 | 1.6 | 0.00 | 0.00 | 0.00 | 85 | 1011.2 |
| 20260508071212 | 7 | 182 | 0.0 | 3.2 | 0.00 | 0.00 | 0.00 | 85 | 1011.2 |
| 20260508070712 | 7 | 194 | 4.8 | 6.4 | 0.00 | 0.00 | 0.00 | 85 | 1011.3 |
| 20260508070212 | 7 | 183 | 1.6 | 4.8 | 0.00 | 0.00 | 0.00 | 85 | 1011.3 |
| 20260508065712 | 7 | 172 | 1.6 | 4.8 | 0.00 | 0.00 | 0.00 | 84 | 1011.3 |
| 20260508065212 | 7 | 167 | 0.0 | 4.8 | 0.00 | 0.00 | 0.00 | 84 | 1011.2 |
| 20260508064712 | 7 | 193 | 1.6 | 6.4 | 0.00 | 0.00 | 0.00 | 84 | 1011.3 |
| 20260508064212 | 8 | 0.0 | 0.0 | 0.00 | 0.00 | 0.00 | 84 | 1011.4 | |
| 20260508063731 | 8 | 170 | 1.6 | 6.4 | 0.00 | 0.00 | 0.00 | 83 | 1011.4 |
| 20260508063252 | 8 | 173 | 1.6 | 4.8 | 0.00 | 0.00 | 0.00 | 83 | 1011.5 |
| 20260508062711 | 8 | 164 | 0.0 | 1.6 | 0.00 | 0.00 | 0.00 | 83 | 1011.5 |
| 20260508062212 | 8 | 196 | 6.4 | 9.7 | 0.00 | 0.00 | 0.00 | 83 | 1011.5 |
| 20260508061711 | 8 | 189 | 0.0 | 1.6 | 0.00 | 0.00 | 0.00 | 82 | 1011.6 |
| 20260508061231 | 8 | 200 | 3.2 | 8.0 | 0.00 | 0.00 | 0.00 | 82 | 1011.6 |
| 20260508060712 | 8 | 192 | 6.4 | 11.3 | 0.00 | 0.00 | 0.00 | 82 | 1011.6 |
| 20260508060211 | 8 | 203 | 3.2 | 12.9 | 0.00 | 0.00 | 0.00 | 81 | 1011.8 |
| 20260508055712 | 8 | 194 | 6.4 | 14.5 | 0.00 | 0.00 | 0.00 | 81 | 1011.8 |
| 20260508055231 | 8 | 200 | 3.2 | 9.7 | 0.00 | 0.00 | 0.00 | 80 | 1011.8 |
| 20260508054711 | 8 | 191 | 3.2 | 9.7 | 0.00 | 0.00 | 0.00 | 80 | 1011.8 |
| 20260508054211 | 8 | 190 | 4.8 | 11.3 | 0.00 | 0.00 | 0.00 | 79 | 1011.8 |
| 20260508053731 | 8 | 191 | 3.2 | 11.3 | 0.00 | 0.00 | 0.00 | 79 | 1011.8 |
| 20260508053212 | 8 | 208 | 9.7 | 16.1 | 0.00 | 0.00 | 0.00 | 78 | 1011.9 |
| 20260508052711 | 8 | 166 | 8.0 | 17.7 | 0.00 | 0.00 | 0.00 | 78 | 1011.9 |
| 20260508052211 | 8 | 189 | 3.2 | 12.9 | 0.00 | 0.00 | 0.00 | 77 | 1011.9 |
| 20260508051711 | 8 | 189 | 6.4 | 12.9 | 0.00 | 0.00 | 0.00 | 76 | 1011.9 |
| 20260508051211 | 9 | 221 | 9.7 | 14.5 | 0.00 | 0.00 | 0.00 | 75 | 1011.9 |
| 20260508050751 | 9 | 210 | 6.4 | 14.5 | 0.00 | 0.00 | 0.00 | 75 | 1011.8 |
| 20260508050211 | 9 | 197 | 4.8 | 9.7 | 0.00 | 0.00 | 0.00 | 74 | 1011.8 |
| 20260508045711 | 9 | 226 | 4.8 | 11.3 | 0.00 | 0.00 | 0.00 | 74 | 1011.8 |
| 20260508045211 | 9 | 197 | 4.8 | 14.5 | 0.00 | 0.00 | 0.00 | 74 | 1011.7 |
| 20260508044711 | 9 | 205 | 8.0 | 12.9 | 0.00 | 0.00 | 0.00 | 73 | 1011.8 |
| 20260508044211 | 9 | 190 | 6.4 | 17.7 | 0.00 | 0.00 | 0.00 | 73 | 1011.7 |
| 20260508043711 | 9 | 197 | 4.8 | 16.1 | 0.00 | 0.00 | 0.00 | 73 | 1011.7 |
| 20260508043211 | 9 | 187 | 6.4 | 14.5 | 0.00 | 0.00 | 0.00 | 72 | 1011.6 |
| 20260508042711 | 9 | 190 | 3.2 | 12.9 | 0.00 | 0.00 | 0.00 | 72 | 1011.6 |
| 20260508042211 | 9 | 200 | 1.6 | 9.7 | 0.00 | 0.00 | 0.00 | 72 | 1011.6 |
| 20260508041711 | 9 | 193 | 4.8 | 8.0 | 0.00 | 0.00 | 0.00 | 72 | 1011.6 |
| 20260508041211 | 9 | 199 | 6.4 | 11.3 | 0.00 | 0.00 | 0.00 | 72 | 1011.6 |
| 20260508040711 | 9 | 187 | 4.8 | 11.3 | 0.00 | 0.00 | 0.00 | 72 | 1011.6 |
| 20260508040211 | 9 | 174 | 4.8 | 9.7 | 0.00 | 0.00 | 0.00 | 72 | 1011.6 |
| 20260508035712 | 9 | 187 | 12.9 | 17.7 | 0.00 | 0.00 | 0.00 | 72 | 1011.6 |
| 20260508035231 | 9 | 178 | 4.8 | 8.0 | 0.00 | 0.00 | 0.00 | 72 | 1011.7 |
| 20260508034732 | 9 | 192 | 4.8 | 6.4 | 0.00 | 0.00 | 0.00 | 72 | 1011.7 |
| 20260508034211 | 9 | 193 | 6.4 | 11.3 | 0.00 | 0.00 | 0.00 | 72 | 1011.7 |
| 20260508033711 | 9 | 168 | 4.8 | 8.0 | 0.00 | 0.00 | 0.00 | 72 | 1011.7 |
| 20260508033211 | 9 | 200 | 6.4 | 9.7 | 0.00 | 0.00 | 0.00 | 71 | 1011.8 |
| 20260508032711 | 9 | 176 | 3.2 | 6.4 | 0.00 | 0.00 | 0.00 | 71 | 1011.9 |
| 20260508032211 | 9 | 167 | 3.2 | 8.0 | 0.00 | 0.00 | 0.00 | 71 | 1011.9 |
| 20260508031732 | 9 | 185 | 4.8 | 9.7 | 0.00 | 0.00 | 0.00 | 71 | 1012.0 |
| 20260508031211 | 9 | 194 | 1.6 | 6.4 | 0.00 | 0.00 | 0.00 | 70 | 1012.1 |
| 20260508030712 | 9 | 200 | 4.8 | 9.7 | 0.00 | 0.00 | 0.00 | 70 | 1012.1 |
| 20260508030231 | 10 | 197 | 3.2 | 9.7 | 0.00 | 0.00 | 0.00 | 70 | 1012.1 |
| 20260508025731 | 10 | 191 | 3.2 | 8.0 | 0.00 | 0.00 | 0.00 | 69 | 1012.1 |
| 20260508025211 | 10 | 192 | 3.2 | 8.0 | 0.00 | 0.00 | 0.00 | 69 | 1012.1 |
| 20260508024711 | 10 | 204 | 3.2 | 8.0 | 0.00 | 0.00 | 0.00 | 69 | 1012.2 |
| 20260508024211 | 10 | 188 | 1.6 | 6.4 | 0.00 | 0.00 | 0.00 | 68 | 1012.2 |
| 20260508023712 | 10 | 197 | 4.8 | 8.0 | 0.00 | 0.00 | 0.00 | 67 | 1012.1 |
| 20260508023211 | 10 | 188 | 8.0 | 11.3 | 0.00 | 0.00 | 0.00 | 67 | 1012.1 |
| 20260508022752 | 10 | 183 | 8.0 | 11.3 | 0.00 | 0.00 | 0.00 | 66 | 1012.0 |
| 20260508022211 | 10 | 194 | 4.8 | 9.7 | 0.00 | 0.00 | 0.00 | 66 | 1011.9 |
| 20260508021711 | 10 | 182 | 4.8 | 8.0 | 0.00 | 0.00 | 0.00 | 66 | 1012.0 |
| 20260508021211 | 10 | 208 | 6.4 | 11.3 | 0.00 | 0.00 | 0.00 | 66 | 1012.1 |
| 20260508020711 | 10 | 210 | 1.6 | 6.4 | 0.00 | 0.00 | 0.00 | 66 | 1012.1 |
| 20260508020211 | 10 | 206 | 6.4 | 9.7 | 0.00 | 0.00 | 0.00 | 66 | 1012.1 |
| 20260508015751 | 10 | 197 | 6.4 | 9.7 | 0.00 | 0.00 | 0.00 | 66 | 1012.0 |
| 20260508015211 | 10 | 201 | 6.4 | 11.3 | 0.00 | 0.00 | 0.00 | 65 | 1012.0 |
| 20260508014751 | 10 | 184 | 1.6 | 14.5 | 0.00 | 0.00 | 0.00 | 64 | 1011.9 |
| 20260508014211 | 10 | 189 | 4.8 | 9.7 | 0.00 | 0.00 | 0.00 | 64 | 1011.9 |
| 20260508013711 | 10 | 201 | 4.8 | 9.7 | 0.00 | 0.00 | 0.00 | 64 | 1011.9 |
| 20260508013231 | 10 | 202 | 9.7 | 14.5 | 0.00 | 0.00 | 0.00 | 64 | 1011.9 |
| 20260508012711 | 10 | 206 | 8.0 | 12.9 | 0.00 | 0.00 | 0.00 | 64 | 1011.7 |
| 20260508012211 | 10 | 220 | 12.9 | 20.9 | 0.00 | 0.00 | 0.00 | 63 | 1011.7 |
| 20260508011711 | 10 | 223 | 9.7 | 27.4 | 0.00 | 0.00 | 0.00 | 62 | 1011.7 |
| 20260508011211 | 10 | 190 | 11.3 | 20.9 | 0.00 | 0.00 | 0.00 | 61 | 1011.5 |
| 20260508010711 | 10 | 217 | 8.0 | 14.5 | 0.00 | 0.00 | 0.00 | 61 | 1011.6 |
| 20260508010231 | 11 | 201 | 6.4 | 12.9 | 0.00 | 0.00 | 0.00 | 60 | 1011.6 |
| 20260508005731 | 11 | 195 | 6.4 | 16.1 | 0.00 | 0.00 | 0.00 | 59 | 1011.5 |
| 20260508005211 | 11 | 199 | 6.4 | 12.9 | 0.00 | 0.00 | 0.00 | 58 | 1011.5 |
| 20260508004711 | 11 | 204 | 12.9 | 22.5 | 0.00 | 0.00 | 0.00 | 57 | 1011.4 |
| 20260508004211 | 11 | 208 | 12.9 | 22.5 | 0.00 | 0.00 | 0.00 | 55 | 1011.4 |
| 20260508003711 | 11 | 210 | 6.4 | 22.5 | 0.00 | 0.00 | 0.00 | 54 | 1011.4 |
| 20260508003211 | 12 | 223 | 11.3 | 24.1 | 0.00 | 0.00 | 0.00 | 52 | 1011.3 |
| 20260508002711 | 12 | 215 | 11.3 | 22.5 | 0.00 | 0.00 | 0.00 | 50 | 1011.2 |
| 20260508002211 | 12 | 219 | 8.0 | 27.4 | 0.00 | 0.00 | 0.00 | 49 | 1011.1 |
| 20260508001731 | 12 | 222 | 17.7 | 25.7 | 0.00 | 0.00 | 0.00 | 47 | 1011.1 |
| 20260508001231 | 12 | 233 | 12.9 | 22.5 | 0.00 | 0.00 | 0.00 | 46 | 1010.9 |
| 20260508000711 | 12 | 233 | 4.8 | 9.7 | 0.00 | 0.00 | 0.00 | 46 | 1011.0 |
| 20260508000231 | 12 | 240 | 9.7 | 16.1 | 0.00 | 0.00 | 0.00 | 45 | 1010.9 |
| 20260507235731 | 13 | 232 | 8.0 | 14.5 | 0.00 | 0.00 | 0.00 | 45 | 1010.9 |
| 20260507235211 | 13 | 268 | 1.6 | 14.5 | 0.00 | 0.00 | 0.00 | 44 | 1010.9 |
| 20260507234711 | 13 | 224 | 8.0 | 19.3 | 0.00 | 0.00 | 0.00 | 43 | 1010.9 |
| 20260507234211 | 13 | 214 | 4.8 | 8.0 | 0.00 | 0.00 | 0.00 | 44 | 1010.9 |
| 20260507233711 | 13 | 255 | 9.7 | 14.5 | 0.00 | 0.00 | 0.00 | 43 | 1010.8 |
| 20260507233211 | 13 | 254 | 6.4 | 14.5 | 0.00 | 0.00 | 0.00 | 43 | 1010.9 |
| 20260507232711 | 13 | 268 | 3.2 | 14.5 | 0.00 | 0.00 | 0.00 | 43 | 1010.8 |
| 20260507232211 | 13 | 229 | 4.8 | 8.0 | 0.00 | 0.00 | 0.00 | 42 | 1010.7 |
| 20260507231711 | 13 | 324 | 6.4 | 14.5 | 0.00 | 0.00 | 0.00 | 42 | 1010.9 |
| 20260507231211 | 13 | 238 | 8.0 | 12.9 | 0.00 | 0.00 | 0.00 | 41 | 1010.7 |
| 20260507230711 | 13 | 236 | 9.7 | 14.5 | 0.00 | 0.00 | 0.00 | 43 | 1010.8 |
| 20260507230211 | 13 | 264 | 1.6 | 3.2 | 0.00 | 0.00 | 0.00 | 43 | 1010.8 |
| 20260507225711 | 13 | 232 | 4.8 | 8.0 | 0.00 | 0.00 | 0.00 | 42 | 1010.8 |
| 20260507225211 | 13 | 286 | 0.0 | 3.2 | 0.00 | 0.00 | 0.00 | 42 | 1010.8 |
| 20260507224711 | 13 | 264 | 3.2 | 6.4 | 0.00 | 0.00 | 0.00 | 41 | 1010.8 |
| 20260507224211 | 13 | 226 | 4.8 | 14.5 | 0.00 | 0.00 | 0.00 | 41 | 1010.8 |
| 20260507223711 | 13 | 281 | 3.2 | 8.0 | 0.00 | 0.00 | 0.00 | 42 | 1010.9 |
| 20260507223211 | 13 | 237 | 3.2 | 6.4 | 0.00 | 0.00 | 0.00 | 42 | 1010.9 |
| 20260507222711 | 13 | 245 | 8.0 | 16.1 | 0.00 | 0.00 | 0.00 | 41 | 1011.0 |
| 20260507222211 | 13 | 239 | 9.7 | 17.7 | 0.00 | 0.00 | 0.00 | 42 | 1011.0 |
| 20260507221711 | 13 | 261 | 1.6 | 6.4 | 0.00 | 0.00 | 0.00 | 43 | 1010.9 |
| 20260507221211 | 13 | 351 | 0.0 | 1.6 | 0.00 | 0.00 | 0.00 | 42 | 1011.0 |
| 20260507220711 | 13 | 255 | 1.6 | 6.4 | 0.00 | 0.00 | 0.00 | 40 | 1010.9 |
| 20260507220211 | 13 | 284 | 3.2 | 11.3 | 0.00 | 0.00 | 0.00 | 40 | 1010.9 |
| 20260507215711 | 13 | 342 | 3.2 | 11.3 | 0.00 | 0.00 | 0.00 | 41 | 1010.8 |
| 20260507215211 | 13 | 32 | 3.2 | 14.5 | 0.00 | 0.00 | 0.00 | 41 | 1010.8 |
| 20260507214711 | 13 | 311 | 4.8 | 9.7 | 0.00 | 0.00 | 0.00 | 41 | 1010.9 |
| 20260507214231 | 14 | 258 | 9.7 | 16.1 | 0.00 | 0.00 | 0.00 | 40 | 1010.8 |
| 20260507213711 | 14 | 261 | 8.0 | 17.7 | 0.00 | 0.00 | 0.00 | 38 | 1010.8 |
| 20260507213211 | 14 | 267 | 9.7 | 17.7 | 0.00 | 0.00 | 0.00 | 39 | 1010.8 |
| 20260507212711 | 14 | 265 | 3.2 | 22.5 | 0.00 | 0.00 | 0.00 | 39 | 1010.9 |
| 20260507212211 | 14 | 265 | 3.2 | 19.3 | 0.00 | 0.00 | 0.00 | 40 | 1010.9 |
| 20260507211711 | 14 | 251 | 6.4 | 19.3 | 0.00 | 0.00 | 0.00 | 40 | 1010.8 |
| 20260507211211 | 14 | 198 | 3.2 | 14.5 | 0.00 | 0.00 | 0.00 | 40 | 1010.8 |
| 20260507210711 | 14 | 343 | 1.6 | 8.0 | 0.00 | 0.00 | 0.00 | 41 | 1010.9 |
| 20260507210211 | 14 | 342 | 3.2 | 9.7 | 0.00 | 0.00 | 0.00 | 41 | 1011.0 |
| 20260507205711 | 14 | 309 | 11.3 | 20.9 | 0.00 | 0.00 | 0.00 | 43 | 1011.1 |
| 20260507205211 | 14 | 292 | 6.4 | 12.9 | 0.00 | 0.00 | 0.00 | 41 | 1011.3 |
| 20260507204711 | 15 | 264 | 3.2 | 22.5 | 0.00 | 0.00 | 0.00 | 40 | 1011.1 |
| 20260507204211 | 14 | 302 | 3.2 | 19.3 | 0.00 | 0.00 | 0.00 | 41 | 1011.3 |
| 20260507203711 | 15 | 296 | 6.4 | 25.7 | 0.00 | 0.00 | 0.00 | 40 | 1011.4 |
| 20260507203211 | 15 | 265 | 3.2 | 12.9 | 0.00 | 0.00 | 0.00 | 41 | 1011.4 |
| 20260507202711 | 15 | 249 | 4.8 | 16.1 | 0.00 | 0.00 | 0.00 | 41 | 1011.4 |
| 20260507202211 | 15 | 223 | 11.3 | 17.7 | 0.00 | 0.00 | 0.00 | 42 | 1011.3 |
| 20260507201731 | 15 | 286 | 3.2 | 11.3 | 0.00 | 0.00 | 0.00 | 41 | 1011.4 |
| 20260507201231 | 14 | 283 | 4.8 | 14.5 | 0.00 | 0.00 | 0.00 | 43 | 1011.5 |
| 20260507200711 | 14 | 264 | 8.0 | 17.7 | 0.00 | 0.00 | 0.00 | 44 | 1011.5 |
| 20260507200211 | 14 | 335 | 3.2 | 14.5 | 0.00 | 0.00 | 0.00 | 42 | 1011.5 |
| 20260507195751 | 14 | 336 | 6.4 | 19.3 | 0.00 | 0.00 | 0.00 | 43 | 1011.6 |